SCP
0 0 0 0 0 0 0 0 0 0 0 0 0 0 0 0 0 0 0 0 0 0 0 0 0 0 0 0 0 0 0 0 0 0 0 0 0 0 0 0 0 0 0
0 0 0 0 0 0 0 0 0 0 0 0 0 0 0 0 0 0 0 0 0 0 0 0 0 0 0 0 0 0 0 0 0 0 0 0 0 0 0 0 0 0 0
0 0 0 0 0 0 0 0 0 0 0 0 0 0 0 0 0 0 0 0 0 0 0 0 0 0 0 0 0 0 0 0 0 0 0 0 0 0 0 0 0 0 0
0 0 0 0 0 0 0 0 0 0 0 0 0 0 0 0 0 0 0 0 0 0 0 0 0 0 0 0 0 0 0 0 0 0 0 0 0 0 0 0 0 0 0
0 0 0 0 0 0 0 0 0 0 0 0 0 0 0 0 0 0 0 0 0 0 0 0 0 0 0 0 0 0 0 0 0 0 0 0 0 0 0 0 0 0 0
0 0 0 0 0 0 0 0 0 0 0 0 0 0 0 0 0 0 0 0 0 0 0 0 0 0 0 0 0 0 0 0 0 0 0 0 0 0 0 0 0 0 0
0 0 0 0 0 0 0 0 0 0 0 0 0 0 0 0 0 0 0 0 0 0 0 0 0 0 0 0 0 0 0 0 0 0 0 0 0 0 0 0 0 0 0
0 0 0 0 0 0 0 0 0 0 0 0 0 0 0 0 0 0 0 0 0 0 0 0 0 0 0 0 0 0 0 0 0 0 0 0 0 0 0 0 0 0 0
0 0 0 0 0 0 0 0 0 0 0 0 0 0 0 0 0 0 0 0 0 0 0 0 0 0 0 0 0 0 0 0 0 0 0 0 0 0 0 0 0 0 0
0 0 0 0 0 0 0 0 0 0 0 0 0 0 0 0 0 0 0 0 0 0 0 0 0 0 0 0 0 0 0 0 0 0 0 0 0 0 0 0 0 0 0
0 0 0 0 0 0 0 0 0 0 0 0 0 0 0 0 0 0 0 0 0 0 0 0 0 0 0 0 0 0 0 0 0 0 0 0 0 0 0 0 0 0 0
0 0 0 0 0 0 0 0 0 0 0 0 0 0 0 0 0 0 0 0 0 0 0 0 0 0 0 0 0 0 0 0 0 0 0 0 0 0 0 0 0 0 0
0 0 0 0 0 0 0 0 0 0 0 0 0 0 -0 0 0 0 0 0 0 0 0 0 0 0 0 0 0 0 0 0 0 0 0 0 0 0 0 0 0 0 0
0 0 0 0 0 0 0 0 0 0 0 0 0 0 -0 0 0 0 0 0 0 0 0 0 0 0 0 0 0 0 0 0 0 0 0 0 0 0 0 0 0 0 0
0 0 0 0 0 0 0 0 0 0 0 0 0 0 0 0 0 0 0 0 0 0 0 0 0 0 0 0 0 0 0 0 0 0 0 0 0 0 0 0 0 0 0
0 0 0 0 0 0 0 0 0 0 0 0 0 0 0 0 0 0 0 0 0 0 0 0 0 0 0 0 0 0 0 0 0 0 0 0 0 0 0 0 0 0 0
0 0 0 0 0 0 0 0 0 0 0 0 0 0 0 0 0 0 0 0 0 0 0 0 0 0 0 0 0 0 0 0 0 0 0 0 0 0 0 0 0 0 0
0 0 0 0 0 0 0 0 0 0 0 0 0 0 0 0 0 0 0 0 0 0 0 0 0 0 0 0 0 0 0 0 0 0 0 0 0 0 0 0 0 0 0
0 0 0 0 0 0 0 0 0 0 0 0 0 0 0 0 0 0 0 0 0 0 0 0 0 0 0 0 0 0 0 0 0 0 0 0 0 0 0 0 0 0 0
0 0 0 0 0 0 0 0 0 0 0 0 0 0 0 0 0 0 0 0 0 0 0 0 0 0 0 0 0 0 0 0 0 0 0 0 0 0 0 0 0 0 0
0 0 0 0 0 0 0 0 0 0 0 0 0 0 0 0 0 0 0 0 0 0 0 0 0 0 0 0 0 0 0 0 0 0 0 0 0 0 0 0 0 0 0
0 0 0 0 0 0 0 0 0 0 0 0 0 0 0 -0 -0 0 0 0 0 0 0 0 0 0 0 0 0 0 0 0 0 0 0 0 0 0 0 0 0 0 0
0 0 0 0 0 0 0 0 0 0 0 0 0 0 0 0 0 0 0 0 0 0 0 0 0 0 0 0 0 0 0 0 0 0 0 0 0 0 0 0 0 0 0
0 0 0 0 0 0 0 0 0 0 0 0 0 0 0 0 0 0 0 0 0 0 0 0 0 0 0 0 0 0 0 0 0 0 0 0 0 0 0 0 0 0 0
0 0 0 0 0 0 0 0 0 0 0 0 0 0 0 0 0 0 0 0 0 0 0 0 0 0 0 0 0 0 0 0 0 0 0 0 0 0 0 0 0 0 0
0 0 0 0 0 0 0 0 0 0 0 0 0 0 0 0 0 0 0 0 0 0 0 0 0 0 0 0 0 0 0 0 0 0 0 0 0 0 0 0 0 0 0
Wind_Speed
7 9 11 11 12 12 13 13 13 13 12 12 12 12 12 12 12 12 11 11 11 11 10 10 10 10 10 9 9 9 8 7 6 5 4 4 5 6 7 8 7 5 8
10 10 12 12 12 13 13 13 13 13 12 12 12 11 11 11 11 11 11 11 10 10 10 10 9 9 9 9 9 8 8 7 6 5 3 2 4 5 7 8 9 6 8
12 11 11 13 13 14 14 14 14 13 12 12 12 11 11 11 10 10 10 10 10 10 10 9 9 8 8 8 8 8 8 7 7 8 6 1 3 6 7 8 8 8 8
13 11 11 13 14 14 14 14 13 13 12 11 11 10 10 10 10 10 10 10 10 9 9 9 8 8 8 8 8 7 7 7 8 8 3 2 4 7 7 8 7 8 8
13 12 12 13 14 14 13 13 12 11 11 10 10 10 9 9 9 9 9 9 9 9 9 8 8 8 7 7 7 7 8 8 9 6 2 3 4 6 7 7 7 7 7
13 12 11 13 13 13 13 13 12 11 11 10 10 9 9 9 9 9 9 9 9 9 8 8 8 7 8 8 8 8 8 9 9 3 2 4 4 6 6 6 6 6 6
12 11 12 13 13 13 13 12 11 11 11 10 9 9 9 9 9 9 9 9 8 8 8 8 8 7 7 7 7 7 8 9 5 1 2 4 4 6 6 5 6 6 6
12 12 11 13 13 13 12 11 11 10 9 9 8 7 7 7 7 7 8 8 8 8 8 7 7 7 6 6 6 6 8 9 6 3 3 4 6 6 5 5 5 5 5
10 10 9 10 10 12 12 11 9 8 7 7 6 4 3 4 5 6 7 7 7 7 7 6 6 6 5 5 5 6 7 8 5 2 3 4 6 6 5 5 5 5 5
7 7 8 8 9 8 8 9 8 7 5 4 3 1 1 1 2 4 6 6 5 5 5 5 5 5 5 6 6 6 7 7 3 1 3 5 7 6 6 5 5 5 5
7 6 6 6 6 6 6 7 7 6 4 4 3 3 3 1 1 2 5 3 2 2 3 4 5 6 7 6 7 7 6 3 0 3 3 6 7 6 5 5 5 5 5
6 6 5 5 5 5 5 4 2 3 2 1 1 1 1 1 1 3 3 2 3 3 4 5 7 7 6 3 4 6 2 2 1 3 4 7 6 5 4 4 5 5 5
5 4 5 5 5 5 3 3 1 1 1 2 2 3 3 3 1 1 1 1 2 1 2 3 4 2 2 2 2 1 1 2 2 3 4 7 5 4 3 3 4 4 5
5 4 4 5 5 5 4 2 2 2 2 2 3 3 2 2 2 2 2 2 2 1 2 2 2 3 3 3 3 3 3 2 2 2 3 6 5 3 2 2 3 4 4
6 5 4 5 6 5 2 1 4 3 2 2 2 3 4 3 3 3 2 2 3 3 3 3 3 3 3 3 4 4 4 3 2 2 2 5 5 3 2 2 2 3 3
6 6 5 5 4 4 2 2 3 3 2 3 2 4 4 3 3 3 3 3 3 3 3 3 4 3 3 2 3 3 3 3 3 1 2 3 4 4 2 1 1 2 2
8 7 5 4 5 5 4 4 3 3 3 3 3 4 4 4 4 4 4 4 3 4 4 4 5 4 4 4 4 4 2 2 2 2 1 1 2 4 4 3 2 1 2
7 7 4 5 5 5 4 4 3 4 3 3 3 4 5 5 5 4 3 3 4 4 4 3 3 4 4 4 3 3 2 2 2 2 1 1 1 1 3 4 3 2 1
6 6 5 5 4 4 3 3 3 3 3 3 4 4 5 6 6 4 3 3 4 4 4 5 4 3 4 4 3 2 2 2 2 3 3 2 2 1 2 3 3 2 2
5 7 6 4 4 3 2 2 2 3 3 3 3 3 4 4 6 5 3 4 4 3 4 4 4 4 3 3 4 3 2 1 1 2 2 2 2 3 2 2 1 2 2
5 6 6 5 4 3 2 2 2 2 2 3 3 4 4 5 5 4 4 3 3 3 4 4 4 5 4 4 3 3 3 2 2 1 2 2 3 3 2 2 0 1 1
5 5 5 5 5 4 2 1 2 2 2 3 2 3 4 4 5 5 4 3 3 2 4 4 4 3 4 4 3 3 3 4 4 3 2 2 3 2 3 3 2 1 1
5 5 5 5 5 4 3 2 2 2 1 2 2 2 2 3 3 4 4 4 3 3 3 3 4 4 3 4 3 3 2 2 4 3 3 3 3 2 2 2 3 3 3
5 4 5 5 5 4 4 2 2 2 2 2 2 2 2 3 4 4 4 4 4 3 3 4 4 3 3 3 3 3 2 1 1 3 4 3 3 2 2 2 3 3 3
6 4 4 5 5 5 4 3 3 3 2 2 2 2 2 3 3 4 4 4 4 3 4 4 4 4 3 3 3 3 3 3 2 1 3 4 4 3 2 2 1 2 2
6 5 4 6 5 4 3 3 3 3 2 3 3 2 1 2 2 3 3 3 3 3 4 4 3 4 3 3 3 2 2 2 3 2 2 3 3 3 3 1 1 1 1
Wind_Direction
83 83 78 78 82 82 82 83 81 78 76 74 74 73 71 68 64 64 61 59 57 54 52 49 48 47 45 42 39 37 36 31 27 25 31 46 51 47 39 31 30 46 46
97 90 80 78 81 83 83 81 80 78 74 72 72 72 70 69 66 62 61 58 56 53 50 48 45 42 41 37 34 30 25 16 2 350 339 26 66 59 46 41 42 40 39
99 96 86 80 81 82 82 82 80 78 76 73 71 70 69 67 65 60 57 55 52 51 49 45 42 39 37 31 28 21 13 0 344 332 323 329 92 70 54 44 41 38 35
95 90 86 85 84 83 83 82 81 80 77 74 70 67 66 64 61 58 54 52 49 47 45 42 38 35 32 28 22 14 3 347 338 332 340 63 80 71 58 46 39 37 34
93 93 90 89 88 87 87 85 83 81 78 74 69 65 63 61 58 55 52 50 47 44 42 38 36 30 27 22 17 8 355 342 334 329 358 67 76 66 59 47 38 33 31
99 98 96 93 90 87 86 85 83 80 76 71 68 65 63 59 56 53 50 47 44 42 39 35 32 29 25 20 11 0 349 341 327 333 47 74 81 69 57 47 38 30 27
104 105 105 100 94 90 87 84 81 78 75 72 69 66 62 60 57 52 48 43 41 38 36 32 28 25 21 13 3 351 341 332 308 315 82 85 83 72 59 47 36 29 27
110 111 115 112 106 100 92 86 80 78 76 73 70 67 66 67 64 58 50 42 39 35 31 27 22 16 10 2 353 342 330 326 333 357 81 92 87 75 62 50 37 31 28
112 121 126 127 119 111 103 97 92 88 85 82 79 77 77 83 84 75 62 43 38 32 26 21 12 2 352 341 332 323 319 323 314 315 66 83 85 74 63 51 40 35 29
106 112 119 127 131 129 121 114 113 112 112 114 116 136 198 195 137 101 76 56 39 25 13 5 350 332 320 312 303 299 303 309 292 34 77 84 79 71 60 52 42 33 29
106 111 109 114 120 125 127 129 143 142 152 167 191 232 248 213 160 132 94 97 39 348 329 319 309 303 298 288 278 278 293 280 344 81 73 84 80 70 57 48 40 36 29
106 104 109 113 118 103 88 114 132 119 134 151 91 61 1 48 41 58 132 200 247 275 296 283 284 289 285 272 263 258 270 301 37 88 85 87 80 69 56 45 38 33 28
97 97 105 108 104 105 99 95 83 95 96 53 37 63 28 19 33 64 150 212 262 285 313 303 289 290 317 330 318 303 331 10 46 78 96 95 86 74 56 45 36 30 25
96 86 87 102 95 82 78 96 92 69 73 53 8 46 49 18 17 19 38 5 350 360 348 332 323 349 352 350 351 356 1 18 55 90 116 115 107 92 63 44 35 23 19
110 98 79 73 89 93 78 67 89 60 45 75 17 28 45 34 25 5 42 12 5 6 5 341 346 359 357 354 356 3 358 358 13 75 114 129 131 128 110 63 32 19 12
114 98 84 77 84 98 102 79 79 103 87 61 28 38 35 37 35 14 22 18 12 1 358 355 360 353 346 349 356 353 352 347 359 31 128 140 152 156 146 111 54 33 18
110 101 88 85 75 63 54 50 67 60 63 57 36 30 37 44 40 32 14 10 6 4 6 6 359 352 355 2 359 351 359 357 345 3 45 152 163 171 169 150 109 67 35
106 105 99 87 83 77 58 38 56 55 52 61 48 23 18 34 46 42 17 6 12 10 3 5 6 1 356 358 350 340 347 345 346 359 353 15 134 148 172 172 152 117 75
114 118 108 93 95 95 100 86 73 78 57 62 55 29 12 20 29 38 24 14 17 17 5 5 10 0 350 341 325 331 346 351 359 1 10 19 27 63 109 160 167 159 140
122 116 111 107 98 96 82 86 76 58 61 70 72 47 21 22 22 21 27 24 19 18 2 4 359 354 347 338 346 349 307 309 33 12 6 14 11 29 50 95 156 183 167
128 121 127 127 114 99 72 65 75 72 61 63 66 50 35 35 23 17 24 23 24 24 10 8 3 355 353 354 359 340 332 18 49 47 27 15 18 23 14 37 90 113 150
114 114 111 105 100 91 78 84 95 89 87 90 64 55 40 39 26 18 21 12 18 24 11 7 10 359 350 7 7 355 355 358 2 14 28 30 20 14 9 15 22 50 98
126 123 122 121 115 111 105 74 64 71 47 74 73 63 46 53 40 14 17 8 8 24 18 11 15 14 356 353 18 35 29 355 329 338 10 28 17 19 8 360 18 24 48
139 134 128 118 115 113 108 79 69 81 72 69 73 73 59 56 48 22 15 8 14 25 23 10 22 3 9 356 350 11 31 4 346 335 342 356 358 17 7 2 20 25 39
137 132 123 112 99 92 95 91 61 58 67 69 63 57 59 63 53 35 15 10 13 21 24 24 14 10 10 6 358 354 354 351 349 19 326 335 342 344 351 20 23 20 23
132 130 120 114 106 104 106 111 105 90 75 67 57 42 36 62 51 39 20 13 18 20 20 13 13 13 8 4 1 3 2 1 348 356 335 329 329 322 334 358 16 351 16